Location: Bazinghen
(50.8246°N, 1.6616°E)
Time: 18:32:34
(UTC+00:00)

SL-16 R/B - Pass Details

Date: 09 April 2020
Orbit: 842 x 846 km, 71.0° (Epoch: 24 May)

Event Time Altitude Azimuth Distance (km) Brightness Sun altitude
Rises 21:27:17 0° 332° (NNW) 3,416 6.7 -23.1°
Reaches altitude 10° 21:30:04 10° 343° (NNW) 2,478 5.5 -23.4°
Maximum altitude 21:35:00 29° 43° (NE) 1,501 3.5 -23.9°
Enters shadow 21:36:42 25° 73° (ENE) 1,648 3.5 -24.0°
